QPF
0.00 0.00 0.00 0.00 0.00 0.00 0.00 0.00 0.00 0.00 0.00 0.00 0.00 0.00 0.00 0.00 0.00 0.00 0.00 0.00 0.00 0.00 0.00 0.00 0.00 0.00 0.00 0.00 0.00 0.00 0.00 0.00 0.00 0.00 0.00 0.00 0.00 0.00 0.00 0.00 0.00 0.00 0.00 0.00
0.00 0.00 0.00 0.00 0.00 0.00 0.00 0.00 0.00 0.00 0.00 0.00 0.00 0.00 0.00 0.00 0.00 0.00 0.00 0.00 0.00 0.00 0.00 0.00 0.00 0.00 0.00 0.00 0.00 0.00 0.00 0.00 0.00 0.00 0.00 0.00 0.00 0.00 0.00 0.00 0.00 0.00 0.00 0.00
0.00 0.00 0.00 0.00 0.00 0.00 0.00 0.00 0.00 0.00 0.00 0.00 0.00 0.00 0.00 0.00 0.00 0.00 0.00 0.00 0.00 0.00 0.00 0.00 0.00 0.00 0.00 0.00 0.00 0.00 0.00 0.00 0.00 0.00 0.00 0.00 0.00 0.00 0.00 0.00 0.00 0.00 0.00 0.00
0.00 0.00 0.00 0.00 0.00 0.00 0.00 0.00 0.00 0.00 0.00 0.00 0.00 0.00 0.00 0.00 0.00 0.00 0.00 0.00 0.00 0.00 0.00 0.00 0.00 0.00 0.00 0.00 0.00 0.00 0.00 0.00 0.00 0.00 0.00 0.00 0.00 0.00 0.00 0.00 0.00 0.00 0.00 0.00
0.00 0.00 0.00 0.00 0.00 0.00 0.00 0.00 0.00 0.00 0.00 0.00 0.00 0.00 0.00 0.00 0.00 0.00 0.00 0.00 0.00 0.00 0.00 0.00 0.00 0.00 0.00 0.00 0.00 0.00 0.00 0.00 0.00 0.00 0.00 0.00 0.00 0.00 0.00 0.00 0.00 0.00 0.00 0.00
0.00 0.00 0.00 0.00 0.00 0.00 0.00 0.00 0.00 0.00 0.00 0.00 0.00 0.00 0.00 0.00 0.00 0.00 0.00 0.00 0.00 0.00 0.00 0.00 0.00 0.00 0.00 0.00 0.00 0.00 0.00 0.00 0.00 0.00 0.00 0.00 0.00 0.00 0.00 0.00 0.00 0.00 0.00 0.00
0.00 0.00 0.00 0.00 0.00 0.00 0.00 0.00 0.00 0.00 0.00 0.00 0.00 0.00 0.00 0.00 0.00 0.00 0.00 0.00 0.00 0.00 0.00 0.00 0.00 0.00 0.00 0.00 0.00 0.00 0.00 0.00 0.00 0.00 0.00 0.00 0.00 0.00 0.00 0.00 0.00 0.00 0.00 0.00
0.00 0.00 0.00 0.00 0.00 0.00 0.00 0.00 0.00 0.00 0.00 0.00 0.00 0.00 0.00 0.00 0.00 0.00 0.00 0.00 0.00 0.00 0.00 0.00 0.00 0.00 0.00 0.00 0.00 0.00 0.00 0.00 0.00 0.00 0.00 0.00 0.00 0.00 0.00 0.00 0.00 0.00 0.00 0.00
0.00 0.00 0.00 0.00 0.00 0.00 0.00 0.00 0.00 0.00 0.00 0.00 0.00 0.00 0.00 0.00 0.00 0.00 0.00 0.00 0.00 0.00 0.00 0.00 0.00 0.00 0.00 0.00 0.00 0.00 0.00 0.00 0.00 0.00 0.00 0.00 0.00 0.00 0.00 0.00 0.00 0.00 0.00 0.00
0.00 0.00 0.00 0.00 0.00 0.00 0.00 0.00 0.00 0.00 0.00 0.00 0.00 0.00 0.00 0.00 0.00 0.00 0.00 0.00 0.00 0.00 0.00 0.00 0.00 0.00 0.00 0.00 0.00 0.00 0.00 0.00 0.00 0.00 0.00 0.00 0.00 0.00 0.00 0.00 0.00 0.00 0.00 0.00
0.00 0.00 0.00 0.00 0.00 0.00 0.00 0.00 0.00 0.00 0.00 0.00 0.00 0.00 0.00 0.00 0.00 0.00 0.00 0.00 0.00 0.00 0.00 0.00 0.00 0.00 0.00 0.00 0.00 0.00 0.00 0.00 0.00 0.00 0.00 0.00 0.00 0.00 0.00 0.00 0.00 0.00 0.00 0.00
0.00 0.00 0.00 0.00 0.00 0.00 0.00 0.00 0.00 0.00 0.00 0.00 0.00 0.00 0.00 0.00 0.00 0.00 0.00 0.00 0.00 0.00 0.00 0.00 0.00 0.00 0.00 0.00 0.00 0.00 0.00 0.00 0.00 0.00 0.00 0.00 0.00 0.00 0.00 0.00 0.00 0.00 0.00 0.00
0.00 0.00 0.00 0.00 0.00 0.00 0.00 0.00 0.00 0.00 0.00 0.00 0.00 0.00 0.00 0.00 0.00 0.00 0.00 0.00 0.00 0.00 0.00 0.00 0.00 0.00 0.00 0.00 0.00 0.00 0.00 0.00 0.00 0.00 0.00 0.00 0.00 0.00 0.00 0.00 0.00 0.00 0.00 0.00
0.00 0.00 0.00 0.00 0.00 0.00 0.00 0.00 0.00 0.00 0.00 0.00 0.00 0.00 0.00 0.00 0.00 0.00 0.00 0.00 0.00 0.00 0.00 0.00 0.00 0.00 0.00 0.00 0.00 0.00 0.00 0.00 0.00 0.00 0.00 0.00 0.00 0.00 0.00 0.00 0.00 0.00 0.00 0.00
0.00 0.00 0.00 0.00 0.00 0.00 0.00 0.00 0.00 0.00 0.00 0.00 0.00 0.00 0.00 0.00 0.00 0.00 0.00 0.00 0.00 0.00 0.00 0.00 0.00 0.00 0.00 0.00 0.00 0.00 0.00 0.00 0.00 0.00 0.00 0.00 0.00 0.00 0.00 0.00 0.00 0.00 0.00 0.00
0.00 0.00 0.00 0.00 0.00 0.00 0.00 0.00 0.00 0.00 0.00 0.00 0.00 0.00 0.00 0.00 0.00 0.00 0.00 0.00 0.00 0.00 0.00 0.00 0.00 0.00 0.00 0.00 0.00 0.00 0.00 0.00 0.00 0.00 0.00 0.00 0.00 0.00 0.00 0.00 0.00 0.00 0.00 0.00
0.00 0.00 0.00 0.00 0.00 0.00 0.00 0.00 0.00 0.00 0.00 0.00 0.00 0.00 0.00 0.00 0.00 0.00 0.00 0.00 0.00 0.00 0.00 0.00 0.00 0.00 0.00 0.00 0.00 0.00 0.00 0.00 0.00 0.00 0.00 0.00 0.00 0.00 0.00 0.00 0.00 0.00 0.00 0.00
0.00 0.00 0.00 0.00 0.00 0.00 0.00 0.00 0.00 0.00 0.00 0.00 0.00 0.00 0.00 0.00 0.00 0.00 0.00 0.00 0.00 0.00 0.00 0.00 0.00 0.00 0.00 0.00 0.00 0.00 0.00 0.00 0.00 0.00 0.00 0.00 0.00 0.00 0.00 0.00 0.00 0.00 0.00 0.00
0.00 0.00 0.00 0.00 0.00 0.00 0.00 0.00 0.00 0.00 0.00 0.00 0.00 0.00 0.00 0.00 0.00 0.00 0.00 0.00 0.00 0.00 0.00 0.00 0.00 0.00 0.00 0.00 0.00 0.00 0.00 0.00 0.00 0.00 0.00 0.00 0.00 0.00 0.00 0.00 0.00 0.00 0.00 0.00
0.00 0.00 0.00 0.00 0.00 0.00 0.00 0.00 0.00 0.00 0.00 0.00 0.00 0.00 0.00 0.00 0.00 0.00 0.00 0.00 0.00 0.00 0.00 0.00 0.00 0.00 0.00 0.00 0.00 0.00 0.00 0.00 0.00 0.00 0.00 0.00 0.00 0.00 0.00 0.00 0.00 0.00 0.00 0.00
0.00 0.00 0.00 0.00 0.00 0.00 0.00 0.00 0.00 0.00 0.00 0.00 0.00 0.00 0.00 0.00 0.00 0.00 0.00 0.00 0.00 0.00 0.00 0.00 0.00 0.00 0.00 0.00 0.00 0.00 0.00 0.00 0.00 0.00 0.00 0.00 0.00 0.00 0.00 0.00 0.00 0.00 0.00 0.00
0.00 0.00 0.00 0.00 0.00 0.00 0.00 0.00 0.00 0.00 0.00 0.00 0.00 0.00 0.00 0.00 0.00 0.00 0.00 0.00 0.00 0.00 0.00 0.00 0.00 0.00 0.00 0.00 0.00 0.00 0.00 0.00 0.00 0.00 0.00 0.00 0.00 0.00 0.00 0.00 0.00 0.00 0.00 0.00
0.00 0.00 0.00 0.00 0.00 0.00 0.00 0.00 0.00 0.00 0.00 0.00 0.00 0.00 0.00 0.00 0.00 0.00 0.00 0.00 0.00 0.00 0.00 0.00 0.00 0.00 0.00 0.00 0.00 0.00 0.00 0.00 0.00 0.00 0.00 0.00 0.00 0.01 0.01 0.00 0.00 0.00 0.00 0.00
0.00 0.00 0.00 0.00 0.00 0.00 0.00 0.00 0.00 0.00 0.00 0.00 0.00 0.00 0.00 0.00 0.00 0.00 0.00 0.00 0.00 0.00 0.00 0.00 0.00 0.00 0.00 0.00 0.00 0.00 0.00 0.00 0.00 0.00 0.00 0.00 0.01 0.01 0.01 0.01 0.01 0.00 0.00 0.00
0.00 0.00 0.00 0.00 0.00 0.00 0.00 0.00 0.00 0.00 0.00 0.00 0.00 0.00 0.00 0.00 0.00 0.00 0.00 0.00 0.00 0.00 0.00 0.00 0.00 0.00 0.00 0.00 0.00 0.00 0.00 0.00 0.00 0.00 0.01 0.01 0.02 0.02 0.01 0.01 0.01 0.00 0.00 0.00
0.00 0.00 0.00 0.00 0.00 0.00 0.00 0.00 0.00 0.00 0.00 0.00 0.00 0.00 0.00 0.00 0.00 0.00 0.00 0.00 0.00 0.00 0.00 0.00 0.00 0.00 0.00 0.00 0.00 0.00 0.00 0.00 0.00 0.00 0.02 0.02 0.02 0.02 0.01 0.01 0.01 0.00 0.00 0.00
0.00 0.00 0.00 0.00 0.00 0.00 0.00 0.00 0.00 0.00 0.00 0.00 0.00 0.00 0.00 0.00 0.00 0.00 0.00 0.00 0.00 0.00 0.00 0.00 0.00 0.00 0.00 0.00 0.00 0.00 0.00 0.00 0.00 0.01 0.01 0.01 0.02 0.02 0.02 0.02 0.01 0.00 0.00 0.00
MSLP
1020.30 1020.43 1020.52 1019.92 1019.39 1019.31 1019.23 1018.25 1017.68 1015.01 1015.12 1013.62 1014.48 1014.68 1014.79 1015.13 1015.58 1016.00 1016.30 1016.59 1016.94 1017.21 1017.42 1017.66 1017.80 1017.86 1017.94 1018.02 1018.01 1017.97 1017.78 1017.45 1017.16 1016.98 1016.61 1016.20 1015.81 1015.54 1015.09 1014.71 1014.34 1014.01 1013.68 1013.31
1020.72 1020.68 1020.52 1019.70 1019.04 1019.05 1018.57 1018.01 1017.14 1016.54 1015.03 1014.68 1014.42 1014.97 1015.36 1015.55 1015.87 1016.10 1016.25 1016.59 1017.04 1017.35 1017.52 1017.57 1017.65 1017.77 1017.89 1017.84 1017.74 1017.83 1017.61 1017.41 1017.13 1016.88 1016.57 1016.24 1015.90 1015.41 1014.86 1014.34 1014.04 1013.72 1013.34 1013.00
1020.54 1020.63 1020.27 1019.20 1017.57 1017.57 1017.89 1017.84 1017.14 1016.16 1014.77 1015.04 1014.99 1015.39 1015.65 1015.83 1015.96 1016.04 1016.21 1016.68 1017.12 1017.38 1017.68 1017.83 1017.86 1017.92 1017.80 1017.74 1017.68 1017.59 1017.49 1017.25 1017.03 1016.80 1016.48 1016.18 1015.90 1015.40 1014.80 1014.31 1013.87 1013.30 1012.92 1012.66
1020.77 1020.54 1019.09 1017.27 1017.50 1017.46 1017.44 1016.87 1016.77 1016.22 1015.59 1015.80 1016.13 1016.21 1016.24 1016.24 1016.26 1016.34 1016.65 1017.01 1017.34 1017.67 1017.92 1018.00 1018.08 1017.95 1017.82 1017.66 1017.48 1017.42 1017.42 1017.25 1017.05 1016.80 1016.46 1016.13 1015.86 1015.39 1014.79 1014.32 1013.78 1013.36 1012.92 1012.42
1021.16 1020.14 1018.11 1016.67 1017.50 1017.63 1017.42 1016.56 1016.49 1016.38 1016.26 1016.38 1016.63 1016.58 1016.59 1017.05 1017.05 1017.08 1017.26 1017.40 1017.63 1017.81 1018.01 1018.11 1018.08 1017.99 1017.80 1017.58 1017.57 1017.52 1017.16 1017.00 1016.95 1016.78 1016.35 1015.99 1015.59 1015.37 1014.98 1014.46 1013.91 1013.33 1013.00 1012.56
1021.75 1020.51 1018.60 1017.63 1017.98 1018.21 1018.09 1017.00 1017.01 1017.07 1016.96 1017.01 1017.08 1016.54 1017.04 1017.40 1017.43 1017.49 1017.67 1017.78 1017.86 1017.93 1018.01 1017.99 1017.84 1017.90 1017.73 1017.42 1017.34 1016.99 1017.06 1017.07 1016.75 1016.39 1016.14 1015.79 1015.36 1015.08 1014.85 1014.38 1013.78 1013.39 1012.85 1012.45
1021.00 1020.37 1018.97 1017.91 1018.14 1018.34 1018.36 1018.01 1017.63 1017.56 1017.65 1017.64 1017.42 1017.55 1017.47 1017.45 1017.32 1017.49 1017.56 1017.73 1017.89 1017.92 1017.92 1017.98 1018.03 1017.93 1017.64 1017.22 1016.92 1016.85 1016.75 1016.42 1016.49 1016.16 1015.58 1015.24 1015.10 1014.87 1014.61 1014.05 1013.38 1012.94 1012.60 1012.04
1020.44 1019.95 1018.68 1017.93 1018.48 1018.67 1018.20 1017.95 1018.10 1018.09 1018.13 1018.09 1018.03 1017.88 1017.76 1017.63 1017.58 1017.61 1017.74 1017.80 1017.89 1017.77 1017.67 1017.77 1017.80 1017.74 1017.44 1016.99 1016.75 1016.66 1016.46 1016.35 1015.73 1015.72 1015.70 1015.01 1014.73 1014.60 1014.23 1013.76 1013.19 1012.71 1012.31 1011.98
1019.60 1018.32 1017.79 1017.88 1017.94 1017.98 1018.54 1018.57 1018.31 1018.25 1018.24 1018.30 1018.19 1018.04 1017.87 1017.62 1017.50 1017.48 1017.56 1017.62 1017.65 1017.62 1017.56 1017.34 1017.27 1017.29 1017.17 1016.71 1016.66 1016.64 1016.17 1015.64 1015.54 1014.99 1014.89 1014.87 1014.24 1013.96 1013.74 1013.49 1013.04 1012.59 1012.21 1011.87
1019.01 1017.58 1017.70 1017.93 1018.46 1018.59 1018.56 1018.69 1018.44 1018.25 1018.31 1018.42 1018.31 1018.04 1017.81 1017.54 1017.52 1017.51 1017.53 1017.45 1017.51 1017.52 1017.36 1017.05 1016.94 1016.94 1016.75 1016.53 1016.57 1016.50 1016.08 1015.30 1015.11 1015.04 1014.21 1014.16 1013.95 1013.52 1013.21 1012.97 1012.75 1012.28 1011.95 1011.68
1018.29 1018.26 1017.85 1017.87 1018.63 1019.08 1018.76 1018.95 1018.75 1018.61 1018.41 1018.34 1018.45 1018.37 1018.07 1017.90 1017.58 1017.59 1017.74 1017.70 1017.54 1017.42 1017.35 1017.14 1017.03 1016.71 1016.57 1016.57 1016.26 1016.04 1015.77 1015.21 1014.73 1014.56 1014.14 1013.55 1013.46 1013.04 1012.74 1012.29 1012.44 1012.05 1011.64 1011.46
1017.65 1018.08 1018.58 1018.80 1019.12 1019.33 1019.17 1018.92 1019.16 1018.84 1018.73 1018.85 1018.67 1018.51 1018.40 1017.94 1017.74 1017.54 1017.56 1017.87 1017.79 1017.40 1017.17 1016.84 1016.72 1016.41 1016.18 1016.28 1016.03 1015.77 1015.36 1014.82 1014.35 1014.15 1013.81 1013.35 1013.01 1012.52 1012.16 1012.25 1012.08 1011.87 1011.41 1011.18
1018.86 1019.17 1019.23 1019.29 1019.90 1020.09 1019.82 1019.77 1019.47 1019.28 1019.36 1019.21 1018.89 1018.74 1018.71 1018.31 1018.10 1017.55 1017.20 1017.44 1017.49 1017.11 1016.87 1016.64 1016.49 1016.14 1015.85 1015.85 1015.69 1015.50 1014.92 1014.40 1013.94 1013.60 1013.31 1012.98 1012.56 1012.17 1011.57 1010.93 1011.07 1010.97 1010.83 1010.51
1019.82 1019.80 1019.48 1020.00 1020.25 1020.62 1020.65 1020.08 1019.89 1019.77 1019.23 1019.13 1019.11 1018.70 1018.53 1018.14 1017.76 1017.68 1016.96 1016.97 1016.96 1016.94 1016.57 1016.24 1015.93 1015.57 1015.45 1015.35 1015.27 1014.94 1014.51 1014.13 1013.77 1013.14 1012.83 1012.48 1012.10 1011.74 1011.34 1010.87 1010.24 1009.75 1009.78 1009.60
1020.19 1020.24 1020.20 1020.22 1020.37 1020.31 1020.26 1019.86 1019.56 1019.49 1019.09 1018.86 1018.98 1018.76 1018.64 1018.42 1017.87 1017.37 1017.02 1016.96 1016.88 1016.60 1016.07 1015.83 1015.38 1014.88 1014.85 1014.66 1014.54 1014.14 1013.76 1013.38 1013.10 1012.72 1012.39 1012.02 1011.70 1011.30 1010.92 1010.48 1010.08 1009.56 1009.03 1008.94
1020.45 1020.41 1020.29 1020.11 1019.96 1020.03 1019.67 1019.59 1019.53 1019.38 1019.04 1018.83 1018.64 1018.53 1018.22 1018.00 1017.50 1017.01 1016.56 1016.52 1016.46 1015.83 1015.26 1015.18 1014.88 1014.37 1014.27 1014.13 1013.76 1013.28 1012.90 1012.60 1012.43 1012.01 1011.59 1011.18 1010.84 1010.57 1010.19 1009.80 1009.36 1009.00 1008.57 1008.17
1020.45 1020.39 1020.16 1019.87 1019.92 1019.52 1019.26 1019.15 1019.23 1019.04 1018.84 1018.61 1018.25 1018.00 1017.73 1017.28 1016.75 1016.25 1015.84 1015.64 1015.56 1015.15 1014.60 1014.41 1014.02 1013.80 1013.63 1013.36 1013.07 1012.63 1012.31 1011.89 1011.51 1011.18 1010.75 1010.41 1010.13 1009.81 1009.47 1009.12 1008.69 1008.34 1007.92 1007.53
1019.64 1019.47 1019.36 1019.20 1019.28 1019.21 1018.93 1018.73 1018.59 1018.28 1017.97 1017.79 1017.66 1017.39 1017.07 1016.70 1016.14 1015.50 1015.02 1014.82 1014.60 1014.13 1013.53 1013.42 1013.26 1013.03 1012.76 1012.56 1012.33 1011.93 1011.60 1011.14 1010.76 1010.39 1010.02 1009.70 1009.36 1009.06 1008.71 1008.37 1008.08 1007.67 1007.14 1006.77
1020.02 1019.71 1019.30 1019.15 1019.12 1018.93 1018.52 1018.15 1017.91 1017.63 1017.34 1017.19 1017.03 1016.71 1016.34 1015.88 1015.32 1014.78 1014.38 1014.20 1013.77 1013.14 1012.20 1012.25 1012.08 1012.15 1011.94 1011.61 1011.53 1011.22 1010.78 1010.39 1010.05 1009.67 1009.28 1008.88 1008.56 1008.22 1007.86 1007.48 1006.99 1006.60 1006.25 1005.98
1019.50 1019.30 1019.15 1018.81 1018.49 1018.32 1017.79 1017.45 1017.20 1016.89 1016.59 1016.38 1016.15 1015.93 1015.45 1014.87 1014.44 1014.08 1013.77 1013.34 1012.60 1012.25 1011.79 1011.41 1011.32 1011.16 1010.96 1010.68 1010.53 1010.33 1009.98 1009.59 1009.24 1008.87 1008.52 1008.15 1007.80 1007.41 1006.99 1006.59 1006.32 1006.01 1005.63 1005.36
1018.83 1018.71 1018.40 1018.03 1017.67 1017.37 1017.03 1016.53 1016.35 1016.01 1015.63 1015.65 1015.48 1015.01 1014.54 1013.91 1013.50 1013.32 1012.96 1012.42 1011.01 1011.08 1010.96 1010.66 1010.60 1010.26 1010.02 1009.88 1009.69 1009.40 1009.14 1008.81 1008.54 1008.26 1007.88 1007.50 1007.16 1006.79 1006.40 1005.98 1005.54 1005.20 1004.85 1004.60
1018.09 1017.84 1017.51 1017.26 1016.90 1016.39 1016.09 1015.85 1015.54 1015.14 1014.88 1014.70 1014.42 1014.08 1013.70 1013.09 1012.67 1012.26 1011.78 1011.66 1010.32 1010.21 1010.20 1009.87 1009.62 1009.42 1009.22 1009.05 1008.76 1008.37 1008.14 1007.91 1007.59 1007.25 1006.91 1006.61 1006.31 1005.91 1005.51 1005.22 1004.83 1004.52 1004.26 1004.00
1017.36 1017.09 1016.86 1016.54 1016.15 1015.72 1015.36 1014.95 1014.41 1014.25 1014.07 1013.66 1013.30 1012.96 1012.73 1012.22 1011.86 1011.46 1010.41 1010.13 1009.74 1009.47 1009.36 1009.01 1008.74 1008.53 1008.33 1008.03 1007.67 1007.41 1007.11 1006.85 1006.55 1006.24 1005.93 1005.66 1005.39 1005.11 1004.74 1004.41 1004.13 1003.84 1003.60 1003.32
1016.70 1016.40 1016.01 1015.67 1015.46 1015.02 1014.42 1013.53 1013.41 1013.25 1012.92 1012.44 1012.15 1011.94 1011.77 1011.17 1010.49 1010.32 1009.79 1009.45 1009.28 1008.88 1008.48 1008.10 1007.80 1007.62 1007.42 1006.99 1006.60 1006.33 1006.05 1005.78 1005.59 1005.35 1005.07 1004.81 1004.45 1004.16 1003.91 1003.65 1003.41 1003.25 1002.97 1002.61
1015.81 1015.34 1015.06 1014.82 1014.42 1013.74 1013.28 1012.80 1012.59 1012.31 1011.94 1011.32 1011.08 1010.82 1010.47 1010.26 1009.97 1009.03 1008.94 1008.56 1008.33 1008.08 1007.57 1007.24 1007.03 1006.75 1006.42 1006.03 1005.78 1005.48 1005.24 1005.02 1004.84 1004.65 1004.37 1004.02 1003.61 1003.29 1003.09 1002.90 1002.71 1002.52 1002.20 1001.90
1014.76 1014.38 1013.94 1013.56 1013.20 1012.65 1012.15 1011.84 1011.49 1011.12 1010.72 1010.01 1009.71 1009.48 1009.14 1008.97 1008.80 1008.44 1008.04 1007.78 1007.48 1007.19 1006.82 1006.41 1006.17 1005.95 1005.66 1005.38 1005.07 1004.84 1004.57 1004.29 1004.12 1003.86 1003.58 1003.22 1002.89 1002.60 1002.34 1002.15 1001.99 1001.77 1001.46 1001.20
1013.69 1013.39 1012.97 1012.48 1012.00 1011.66 1011.34 1010.90 1010.53 1010.00 1009.71 1009.26 1008.79 1008.57 1008.28 1008.06 1007.85 1007.61 1007.25 1006.88 1006.60 1006.27 1005.96 1005.64 1005.41 1005.20 1004.95 1004.68 1004.40 1004.19 1004.01 1003.70 1003.48 1003.25 1002.86 1002.48 1002.13 1001.87 1001.70 1001.48 1001.30 1001.11 1000.90 1000.76
Thickness
5582 5580 5578 5588 5593 5584 5578 5592 5588 5621 5605 5627 5615 5612 5613 5608 5602 5595 5590 5585 5580 5576 5572 5568 5564 5562 5559 5556 5553 5550 5549 5548 5548 5546 5547 5548 5549 5549 5551 5552 5553 5554 5554 5555
5578 5569 5569 5577 5588 5584 5586 5588 5589 5585 5597 5607 5610 5602 5595 5592 5589 5584 5581 5577 5570 5565 5561 5559 5556 5551 5547 5545 5542 5538 5538 5537 5536 5536 5536 5535 5536 5538 5541 5543 5544 5544 5546 5547
5583 5567 5571 5585 5601 5594 5585 5579 5583 5584 5604 5598 5596 5588 5584 5579 5576 5572 5569 5563 5557 5553 5548 5544 5541 5537 5535 5533 5529 5527 5525 5525 5524 5523 5523 5523 5523 5525 5528 5531 5532 5535 5537 5538
5568 5563 5575 5600 5588 5588 5584 5587 5579 5580 5584 5580 5572 5570 5566 5564 5561 5557 5551 5546 5541 5536 5531 5527 5523 5521 5520 5519 5518 5515 5512 5511 5510 5509 5510 5511 5511 5512 5515 5517 5520 5522 5523 5526
5557 5560 5582 5601 5573 5574 5574 5586 5577 5573 5569 5562 5555 5552 5551 5542 5541 5539 5535 5530 5524 5520 5514 5509 5506 5503 5503 5503 5500 5498 5501 5500 5496 5494 5496 5497 5498 5497 5499 5501 5504 5507 5508 5510
5528 5539 5560 5571 5557 5552 5553 5570 5557 5552 5551 5547 5542 5547 5537 5526 5523 5520 5514 5509 5505 5500 5496 5494 5494 5489 5486 5487 5485 5487 5482 5479 5480 5482 5481 5482 5484 5484 5483 5485 5488 5489 5492 5495
5538 5530 5541 5554 5544 5538 5541 5546 5534 5532 5529 5526 5526 5520 5516 5512 5510 5503 5498 5492 5486 5482 5478 5474 5471 5469 5468 5470 5470 5468 5466 5467 5462 5463 5467 5468 5467 5467 5467 5470 5475 5476 5476 5479
5523 5519 5525 5538 5527 5526 5525 5519 5514 5511 5507 5503 5500 5497 5493 5490 5486 5481 5476 5471 5467 5465 5461 5456 5452 5450 5449 5449 5450 5448 5446 5444 5449 5446 5444 5449 5449 5448 5449 5452 5456 5459 5460 5460
5527 5532 5527 5520 5516 5511 5497 5495 5496 5492 5488 5482 5478 5474 5472 5469 5467 5463 5456 5452 5448 5445 5441 5438 5436 5433 5431 5431 5430 5427 5428 5430 5428 5431 5430 5428 5433 5434 5433 5434 5438 5440 5442 5441
5504 5522 5512 5501 5488 5483 5482 5477 5475 5472 5465 5459 5458 5458 5454 5451 5445 5441 5436 5433 5429 5425 5424 5422 5419 5415 5414 5413 5410 5407 5408 5412 5411 5409 5415 5414 5415 5418 5419 5420 5421 5424 5426 5426
5493 5491 5489 5485 5470 5458 5458 5453 5452 5449 5446 5441 5433 5431 5430 5427 5425 5419 5413 5409 5407 5404 5401 5398 5395 5394 5391 5390 5392 5391 5391 5392 5393 5393 5395 5399 5398 5400 5403 5404 5403 5407 5409 5409
5481 5474 5458 5454 5446 5436 5434 5430 5422 5422 5420 5412 5408 5406 5402 5403 5401 5398 5393 5386 5383 5382 5382 5381 5378 5377 5371 5369 5371 5372 5373 5374 5376 5376 5377 5380 5382 5385 5385 5382 5383 5385 5388 5391
5449 5437 5431 5429 5414 5406 5407 5402 5399 5396 5391 5388 5386 5382 5378 5379 5376 5376 5376 5370 5364 5364 5361 5358 5357 5357 5352 5350 5351 5351 5355 5358 5359 5359 5361 5361 5363 5366 5371 5374 5372 5372 5372 5374
5412 5409 5412 5394 5390 5378 5374 5374 5372 5369 5370 5367 5364 5362 5361 5360 5359 5354 5355 5350 5346 5345 5344 5342 5341 5342 5334 5332 5332 5333 5336 5338 5338 5343 5343 5344 5346 5348 5350 5355 5362 5366 5362 5363
5388 5382 5378 5372 5367 5362 5357 5355 5353 5351 5349 5347 5342 5339 5336 5335 5336 5336 5332 5326 5321 5323 5325 5323 5324 5326 5319 5316 5316 5319 5321 5323 5322 5325 5325 5325 5327 5330 5332 5335 5339 5346 5351 5351
5364 5360 5358 5356 5353 5347 5345 5340 5334 5331 5328 5325 5321 5317 5316 5314 5315 5316 5315 5309 5303 5309 5312 5307 5306 5306 5302 5300 5301 5304 5306 5307 5305 5307 5311 5312 5313 5314 5317 5319 5324 5329 5334 5337
5344 5341 5339 5337 5332 5333 5330 5324 5315 5312 5308 5305 5304 5303 5300 5298 5298 5300 5300 5295 5288 5290 5296 5292 5291 5289 5287 5288 5286 5287 5287 5290 5291 5292 5294 5294 5295 5296 5299 5302 5306 5310 5316 5321
5336 5334 5327 5326 5323 5317 5314 5308 5303 5301 5297 5292 5288 5285 5283 5281 5282 5285 5284 5280 5278 5280 5284 5278 5274 5273 5274 5270 5266 5267 5267 5269 5270 5272 5273 5274 5276 5278 5281 5283 5285 5290 5298 5303
5311 5309 5311 5309 5304 5300 5299 5296 5292 5289 5286 5278 5272 5271 5271 5269 5268 5268 5267 5264 5265 5267 5274 5265 5264 5260 5259 5258 5253 5253 5254 5254 5253 5254 5254 5256 5257 5260 5262 5266 5271 5275 5280 5284
5299 5298 5295 5293 5291 5285 5284 5282 5277 5275 5272 5264 5260 5256 5255 5257 5256 5254 5253 5253 5260 5256 5256 5257 5254 5253 5251 5250 5247 5244 5243 5242 5241 5241 5241 5241 5242 5244 5246 5248 5250 5254 5260 5264
5294 5288 5285 5282 5280 5278 5275 5272 5266 5261 5259 5253 5247 5247 5246 5248 5248 5243 5243 5246 5261 5251 5249 5250 5249 5250 5248 5245 5243 5240 5236 5233 5230 5227 5227 5227 5228 5230 5232 5237 5240 5243 5247 5250
5285 5281 5278 5275 5271 5270 5266 5261 5257 5253 5250 5247 5243 5241 5238 5240 5239 5239 5242 5239 5251 5249 5246 5247 5247 5245 5242 5240 5239 5237 5233 5227 5224 5222 5222 5222 5222 5225 5227 5229 5232 5234 5237 5241
5277 5272 5267 5263 5260 5257 5255 5253 5252 5247 5243 5242 5240 5237 5233 5234 5234 5235 5244 5243 5245 5246 5243 5244 5243 5241 5239 5238 5236 5233 5231 5227 5225 5223 5223 5222 5222 5222 5224 5225 5227 5229 5232 5235
5265 5260 5257 5254 5248 5245 5244 5251 5246 5243 5239 5240 5238 5233 5230 5233 5237 5235 5238 5239 5238 5239 5239 5239 5239 5236 5234 5234 5233 5232 5230 5228 5226 5224 5223 5222 5221 5221 5221 5223 5224 5224 5227 5232
5255 5253 5249 5244 5240 5242 5241 5240 5238 5236 5234 5236 5234 5232 5231 5229 5231 5239 5235 5236 5235 5233 5235 5234 5231 5229 5228 5227 5227 5228 5227 5225 5223 5220 5220 5220 5221 5221 5221 5221 5222 5223 5226 5229
5250 5248 5246 5244 5240 5240 5239 5235 5233 5233 5233 5237 5236 5235 5235 5231 5229 5231 5232 5230 5230 5228 5228 5229 5227 5224 5222 5220 5221 5222 5222 5222 5221 5220 5219 5220 5220 5220 5221 5221 5220 5222 5225 5228
5247 5243 5241 5241 5240 5236 5233 5231 5228 5229 5228 5228 5230 5231 5231 5229 5227 5226 5226 5226 5225 5225 5224 5223 5221 5218 5215 5214 5216 5217 5218 5219 5218 5217 5218 5218 5219 5219 5219 5219 5220 5221 5223 5225